Decatur, AL

9:51 PM CST on December 12, 2017 (GMT -0600)
Pryor Regional

Weather History for KDCU - November, 2012

Change the Weather History Date:

Wednesday, November 28, 2012

  Actual Average Record
Temperature  
Mean Temperature 41 °F -  
Max Temperature 52 °F 60 °F 81 °F (1990)
Min Temperature 28 °F 39 °F 17 °F (2013)
Degree Days  
Heating Degree Days 24    
Moisture  
Dew Point 30 °F    
Average Humidity 72    
Maximum Humidity 89    
Minimum Humidity 38    
Precipitation  
Precipitation 0.00 in - - ()
Sea Level Pressure  
Sea Level Pressure 30.42 in    
Wind  
Wind Speed 5 mph (North)    
Max Wind Speed 8 mph    
Max Gust Speed -    
Visibility 8 miles    
Events      
Averages and records for this station are not official NWS values.
T = Trace of Precipitation, MM = Missing Value Source: NWS Daily Summary

Daily Weather History Graph

Daily Weather History Graph

Search for Another Location

Airport or City:

Trip Planner

Search our weather history database for the weather conditions in past years. The results will help you decide how hot, cold, wet, or windy it might be!

Date:

Astronomy

Nov. 28, 2012 Rise Set
Actual Time 6:34 AM CST 4:37 PM CST
Civil Twilight 6:06 AM CST 5:04 PM CST
Nautical Twilight 5:35 AM CST 5:35 PM CST
Astronomical Twilight 5:05 AM CST 6:06 PM CST
Moon 4:52 PM CST (11/28) 6:31 AM CST (11/28)
Length of Visible Light 10h 58m
Length of Day
10h 03m
Full, 100% of the Moon is Illuminated
Nov 28
Full
Dec 6
Last Quarter
Dec 13
New
Dec 19
First Quarter
Dec 28
Full

Hourly Weather History & Observations

Time (CST) Temp. Windchill Dew Point Humidity Pressure Visibility Wind Dir Wind Speed Gust Speed Precip Events Conditions
12:53 AM 39.0 °F 34.0 °F 33.1 °F 79% 30.35 in 7.0 mi North 6.9 mph - N/A   Overcast
1:53 AM 37.9 °F 33.5 °F 32.0 °F 79% 30.37 in 7.0 mi NNE 5.8 mph - N/A   Overcast
2:53 AM 37.9 °F 33.5 °F 32.0 °F 79% 30.38 in 7.0 mi North 5.8 mph - N/A   Overcast
3:13 AM 37.4 °F 31.4 °F 32.0 °F 81% 30.38 in 7.0 mi North 8.1 mph - N/A   Overcast
3:53 AM 37.0 °F 32.4 °F 32.0 °F 82% 30.39 in 7.0 mi NNW 5.8 mph - N/A   Overcast
4:53 AM 36.0 °F 32.1 °F 30.9 °F 82% 30.40 in 7.0 mi NNE 4.6 mph - N/A   Overcast
5:53 AM 35.1 °F 30.1 °F 30.0 °F 82% 30.42 in 7.0 mi NNE 5.8 mph - N/A   Overcast
6:53 AM 35.1 °F 31.0 °F 30.0 °F 82% 30.44 in 6.0 mi NE 4.6 mph - N/A   Haze
7:43 AM 35.6 °F 29.9 °F 30.2 °F 81% 30.44 in 6.0 mi North 6.9 mph - N/A   Haze
7:53 AM 35.1 °F 31.0 °F 30.0 °F 82% 30.45 in 6.0 mi North 4.6 mph - N/A   Haze
8:53 AM 37.9 °F 32.1 °F 30.9 °F 76% 30.48 in 7.0 mi North 8.1 mph - N/A   Clear
9:53 AM 41.0 °F 37.1 °F 32.0 °F 70% 30.48 in 8.0 mi NNW 5.8 mph - N/A   Clear
10:53 AM 45.0 °F 41.8 °F 30.9 °F 58% 30.48 in 9.0 mi NNE 5.8 mph - N/A   Clear
11:53 AM 48.0 °F - 30.9 °F 52% 30.45 in 9.0 mi Variable 3.5 mph - N/A   Clear
12:53 PM 50.0 °F - 28.9 °F 44% 30.43 in 10.0 mi Variable 4.6 mph - N/A   Clear
1:53 PM 52.0 °F - 28.9 °F 41% 30.40 in 10.0 mi Variable 4.6 mph - N/A   Clear
2:53 PM 52.0 °F - 27.0 °F 38% 30.39 in 10.0 mi North 5.8 mph - N/A   Clear
3:53 PM 51.1 °F - 28.0 °F 41% 30.39 in 10.0 mi NNW 3.5 mph - N/A   Clear
4:53 PM 46.0 °F 44.8 °F 30.9 °F 56% 30.39 in 10.0 mi West 3.5 mph - N/A   Clear
5:53 PM 39.9 °F - 30.9 °F 70% 30.40 in 10.0 mi Calm Calm - N/A   Clear
6:53 PM 35.1 °F - 30.9 °F 85% 30.42 in 10.0 mi Calm Calm - N/A   Clear
7:53 PM 34.0 °F - 28.9 °F 82% 30.42 in 10.0 mi Calm Calm - N/A   Clear
8:53 PM 32.0 °F - 28.0 °F 85% 30.42 in 10.0 mi Calm Calm - N/A   Clear
9:53 PM 30.9 °F - 28.0 °F 89% 30.42 in 10.0 mi Calm Calm - N/A   Clear
10:53 PM 30.0 °F - 27.0 °F 88% 30.41 in 10.0 mi Calm Calm - N/A   Clear
11:53 PM 28.9 °F - 26.1 °F 89% 30.40 in 10.0 mi Calm Calm - N/A   Clear